パンスターズ彗星

P/2012 T1 ( PanSTARRS )

English version
Home page
Updated on September 2, 2017

---------------------------------------------------------------------

・ プロフィール

発見日 2012年10月6日
発見光度 20.7等
発見者 Pan-STARRS 1 telescope (Haleakala)

・ 写真集

・ 軌道要素

Epoch 2012 Sept. 30.0 TT = JDT 2456200.5
T 2012 Sept. 10.93973 TT                                MPCW
q   2.4107712            (2000.0)            P               Q
n   0.17600941     Peri.  300.59514     +0.88000833     -0.43473243
a   3.1533980      Node    85.77432     +0.47426471     +0.78254387
e   0.2355005      Incl.   11.05870     +0.02565776     +0.44568240
P   5.60
From 173 observations 2012 Oct. 6-2017 Aug. 17, mean residual 0".4.

・ 光度変化

        m1 = 15.0 + 5 logΔ + 10.0 log r

---------------------------------------------------------------------

軌道要素はM.P.E.C. 2017-Q115に掲載されたものです。
光度グラフはComet for Windowsで作成したものです。

---------------------------------------------------------------------

Copyright(C) Seiichi Yoshida (comet@aerith.net). All rights reserved.